This is the latest recevied weather packets stored in our database for station/object KC5TIL-3. If no packets are shown the sender has not sent any weather packets the latest 10 day(s).
| Time | Temp. | Humidity | Pressure | Rain* | Wind** | Luminosity | Snow |
|---|---|---|---|---|---|---|---|
| 1777619600 | 15.56° C | 46% | 1013.8 hPa | 0 mm | 1.79 m/s, 208° | - | - |
| 1777619299 | 15.56° C | 46% | 1013.8 hPa | 0 mm | 2.24 m/s, 351° | - | - |
| 1777619001 | 15.56° C | 46% | 1013.8 hPa | 0 mm | 2.68 m/s, 177° | - | - |
| 1777618702 | 15.56° C | 46% | 1013.8 hPa | 0 mm | 2.24 m/s, 24° | - | - |
| 1777618401 | 15.56° C | 46% | 1013.8 hPa | 0 mm | 1.79 m/s, 351° | - | - |
| 1777618102 | 15.56° C | 46% | 1013.8 hPa | 0 mm | 2.68 m/s, 57° | - | - |
| 1777617804 | 15.56° C | 46% | 1013.8 hPa | 0 mm | 2.24 m/s, 339° | - | - |
| 1777617494 | 15.56° C | 46% | 1013.8 hPa | 0 mm | 1.79 m/s, 143° | - | - |
| 1777616897 | 15.56° C | 46% | 1013.8 hPa | 0 mm | 2.68 m/s, 120° | - | - |
| 1777616596 | 15.56° C | 46% | 1013.8 hPa | 0 mm | 3.13 m/s, 48° | - | - |
| 1777616000 | 15.56° C | 49% | 1013.8 hPa | 0 mm | 3.13 m/s, 65° | - | - |
| 1777615698 | 15.56° C | 50% | 1013.8 hPa | 0 mm | 1.79 m/s, 103° | - | - |
| 1777615093 | 15.56° C | 48% | 1013.8 hPa | 0 mm | 1.79 m/s, 31° | - | - |
| 1777614791 | 15.56° C | 47% | 1013.8 hPa | 0 mm | 2.24 m/s, 68° | - | - |
| 1777614494 | 16.11° C | 46% | 1013.8 hPa | 0 mm | 2.68 m/s, 120° | - | - |
| 1777614191 | 16.11° C | 46% | 1013.8 hPa | 0 mm | 2.68 m/s, 105° | - | - |
| 1777613293 | 16.11° C | 45% | 1013.8 hPa | 0 mm | 2.24 m/s, 87° | - | - |
| 1777612992 | 16.11° C | 45% | 1013.8 hPa | 0 mm | 2.68 m/s, 130° | - | - |
| 1777612694 | 16.11° C | 45% | 1013.8 hPa | 0 mm | 2.24 m/s, 71° | - | - |
| 1777612395 | 16.11° C | 45% | 1013.8 hPa | 0 mm | 3.58 m/s, 158° | - | - |
| 1777612095 | 16.11° C | 47% | 1013.8 hPa | 0 mm | 2.68 m/s, 82° | - | - |
| 1777611498 | 16.11° C | 46% | 1013.8 hPa | 0 mm | 1.79 m/s, 52° | - | - |
| 1777611197 | 16.11° C | 46% | 1013.8 hPa | 0 mm | 1.79 m/s, 275° | - | - |
| 1777610894 | 16.11° C | 46% | 1013.8 hPa | 0 mm | 2.24 m/s, 83° | - | - |
| 1777610595 | 16.11° C | 46% | 1013.8 hPa | 0 mm | 1.79 m/s, 346° | - | - |
* Rain latest hour (hover to see other rain measurements)
** Current wind speed in m/s (hover to see current wind gust speed)